Regional Weather Roundup
Issued by NWS Green Bay, WI

Home | Current Version | Previous Version | Text Only | Print | Product List | Glossary On
Versions: 1 2 3 4 5 6 7 8 9 10 11 12 13 14 15 16 17 18 19 20 21 22 23 24 25 26 27 28 29 30 31 32 33 34 35 36 37 38 39 40 41 42 43 44 45 46 47 48 49 50
000
ASUS43 KGRB 171959
RWRGRB

NORTH-CENTRAL AND NORTHEAST WISCONSIN REGIONAL WEATHER ROUNDUP
NATIONAL WEATHER SERVICE GREEN BAY WI
300 PM CDT WED SEP 17 2014

WIZ005-009-010>012-018-019-172100-
NORTH CENTRAL WISCONSIN

CITY           SKY/WX    TMP DP  RH WIND       PRES   REMARKS
IRONWOOD       CLOUDY    50  46  87 N10       29.98R
MANITOWISH WTR NOT AVBL
ARBOR VITAE    NOT AVBL
EAGLE RIVER    NOT AVBL
LAND O LAKES   NOT AVBL
RHINELANDER    SUNNY     68  44  42 NW9       29.96S
PHILLIPS       NOT AVBL
ANTIGO         NOT AVBL
TOMAHAWK       NOT AVBL
MERRILL        NOT AVBL
$$

WIZ013-073-172100-
NORTHEAST WISCONSIN

CITY           SKY/WX    TMP DP  RH WIND       PRES   REMARKS
IRON MOUNTAIN  PTSUNNY   69  43  38 NW8       29.91S
MARINETTE      MOSUNNY   70  46  43 W6        29.91S
$$

WIZ017-030-035>037-045-172100-
CENTRAL WISCONSIN

CITY           SKY/WX    TMP DP  RH WIND       PRES   REMARKS
MEDFORD        NOT AVBL
WAUSAU         CLOUDY    67  48  50 NW10      29.94S
MOSINEE        PTSUNNY   70  52  52 W12G18    29.97S
MARSHFIELD     MOSUNNY   70  51  51 W6        29.96F
WISC RAPIDS    SUNNY     70  47  43 W3        29.98S
STEVENS POINT  NOT AVBL
WAUPACA        NOT AVBL
SHAWANO        NOT AVBL
CLINTONVILLE   NOT AVBL
$$

WIZ038-039-048-051-172100-
FOX VALLEY

CITY           SKY/WX    TMP DP  RH WIND       PRES   REMARKS
NWS GREEN BAY  PTSUNNY   68  49  50 SW10      29.95S
APPLETON       PTSUNNY   66  45  45 W10       29.96F
OSHKOSH        MOSUNNY   69  50  50 SW8       29.96F
FOND DU LAC    CLOUDY    68  48  48 SW7       29.97F
$$

WIZ022-050-052-172100-
EAST CENTRAL WISCONSIN

CITY           SKY/WX    TMP DP  RH WIND       PRES   REMARKS
STURGEON BAY   MOSUNNY   66  48  52 W7        29.94F
MANITOWOC      NOT AVBL
SHEBOYGAN      MOSUNNY   69  46  43 W12       29.97F
$$

LMZ563-521-522-541>543-172100-
LAKESHORE

STATION/POSITION TIME  TEMP    WIND        PRES    VSBY  WAVE
                       AIR SEA DIR/SP/G                  HT/PER
                 (UTC) (F)     (DEG/KT/KT) (MB)    (MI)  (FT/S)
SHEBOYGAN LKSHOR 1900   57 49  140/ 11/ 13 1015.5F
KEWAUNEE LKSHORE 1900   56     180/ 11/ 12 1013.5S
NORTHPORT PIER   1900   67     260/  4/  7 1013.5S
N MID LAKE BUOY  1900   58 59  210/ 14/ 16 1013.6F         1/ 4
S GREEN BAY BUOY 1900   62     VRB  8/  8  1014.8F
SISTER BAY LKSHO 1900          250/  8/  8   N/A
CHAMBERS ISLAND  1900   65     170/  6/ 12 1013.5F
MENOMINEE LKSHOR 1900   63     170/ 10/ 12 1013.8S
$$



USA.gov is the U.S. government's official web portal to all federal, state and local government web resources and services.